Flag for Uruguay Weather past 2 weeks in Maldonado, Uruguay

Now
70 °F

Passing clouds.


Feels Like: 70 °F
Forecast: 53 / 73 °F
Wind: 14 mph from South

Location: Capitan Corbeta

Current Time: Jan 30, 2015 at 3:27:25 PM

Latest Report: Jan 30, 2015 at 3:00 PM


Visibility: N/A

Pressure: 30.15 "Hg

Humidity: 57%

Dew point: 54 °F

Location of MaldonadoLocation

Historic Weather in Maldonado — Graph

°F

Maldonado temperature yesterday

Maximum temperature yesterday: 70 °F (at 12:00 PM)
Minimum temperature yesterday: 63 °F (at 9:00 PM)
Average temperature yesterday: 67 °F

Past Weeks' High & Low Weather Summary

 TemperatureHumidityPressure
High95 °F (Jan 27, 2:00 PM)94% (Jan 16, 4:00 AM)30.24 "Hg (Jan 16, 4:00 AM)
Low54 °F (Jan 21, 6:00 AM)39% (Jan 18, 4:00 PM)29.71 "Hg (Jan 27, 3:00 PM)
Average71 °F70%29.95 "Hg
* Reported Jan 15 2:00 PM — Jan 30 2:00 PM, Maldonado, Weather by CustomWeather, © 2014

Note: Actual official high and low records may vary slightly from our data, if they occured in-between our weather recording intervals... More about our weather records

Advertising

Maldonado weather history for previous 24 hours

 ConditionsComfort  
Time TempWeatherWind HumidityBarometerVisibility
2:00 PM
Jan 30
70 °FPassing clouds.7 mph57%30.18 "HgN/A
1:00 PM70 °FPassing clouds.9 mph60%30.18 "HgN/A
12:00 PM66 °FPassing clouds.6 mph56%30.18 "HgN/A
11:00 AM64 °FScattered clouds.5 mph64%30.18 "HgN/A
10:00 AM63 °FScattered clouds.3 mph68%30.18 "HgN/A
9:00 AM59 °FPassing clouds.No wind88%30.15 "HgN/A
8:00 AM55 °FPassing clouds.3 mph88%30.12 "HgN/A
6:00 AM57 °FPassing clouds.3 mph72%30.09 "HgN/A
5:00 AM59 °FPassing clouds.5 mph68%30.09 "HgN/A
3:00 AM59 °FPassing clouds.3 mph68%30.09 "HgN/A
1:00 AM61 °FPassing clouds.6 mph63%30.09 "HgN/A
12:00 AM63 °FPassing clouds.10 mph64%30.07 "HgN/A
10:00 PM
Jan 29
63 °FPassing clouds.17 mph64%30.07 "HgN/A
9:00 PM63 °FPassing clouds.15 mph59%30.09 "HgN/A
8:00 PM64 °FPartly sunny.18 mph56%30.09 "HgN/A
7:00 PM64 °FPartly sunny.17 mph56%30.09 "HgN/A
6:00 PM70 °FScattered clouds.17 mph53%30.09 "HgN/A
5:00 PM70 °FScattered clouds.18 mph50%30.07 "HgN/A
4:00 PM70 °FScattered clouds.18 mph53%30.07 "HgN/A
3:00 PM70 °FPassing clouds.20 mph53%30.07 "HgN/A
Weather by CustomWeather, © 2014

See weather overviewHow to use our weather pages